This is the latest recevied weather packets stored in our database for station/object KO6TH-15. If no packets are shown the sender has not sent any weather packets the latest 10 day(s).
| Time | Temp. | Humidity | Pressure | Rain* | Wind** | Luminosity | Snow |
|---|---|---|---|---|---|---|---|
| 1777597101 | 26.11° C | 45% | 0 hPa | 0 mm | - | - | - |
| 1777596501 | 26.11° C | 45% | 0 hPa | 0 mm | - | - | - |
| 1777595871 | 27.22° C | 46% | 0 hPa | 0 mm | - | - | - |
| 1777595271 | 28.89° C | 43% | 0 hPa | 0 mm | - | - | - |
| 1777594671 | 28.33° C | 45% | 0 hPa | 0 mm | - | - | - |
| 1777594071 | 29.44° C | 43% | 0 hPa | 0 mm | - | - | - |
| 1777593441 | 30° C | 43% | 0 hPa | 0 mm | - | - | - |
| 1777592811 | 29.44° C | 45% | 0 hPa | 0 mm | - | - | - |
| 1777592181 | 30° C | 44% | 0 hPa | 0 mm | - | - | - |
| 1777591551 | 29.44° C | 45% | 0 hPa | 0 mm | - | - | - |
| 1777590951 | 30° C | 44% | 0 hPa | 0 mm | - | - | - |
| 1777590320 | 29.44° C | 44% | 0 hPa | 0 mm | - | - | - |
| 1777589720 | 30° C | 44% | 0 hPa | 0 mm | - | - | - |
| 1777589091 | 29.44° C | 45% | 0 hPa | 0 mm | - | - | - |
| 1777588460 | 29.44° C | 46% | 0 hPa | 0 mm | - | - | - |
| 1777587831 | 29.44° C | 45% | 0 hPa | 0 mm | - | - | - |
| 1777587231 | 28.89° C | 47% | 0 hPa | 0 mm | - | - | - |
| 1777586631 | 28.33° C | 48% | 0 hPa | 0 mm | - | - | - |
| 1777586000 | 28.89° C | 46% | 0 hPa | 0 mm | - | - | - |
| 1777585400 | 28.33° C | 47% | 0 hPa | 0 mm | - | - | - |
| 1777584771 | 27.78° C | 48% | 0 hPa | 0 mm | - | - | - |
| 1777584171 | 28.33° C | 45% | 0 hPa | 0 mm | - | - | - |
| 1777583541 | 27.78° C | 46% | 0 hPa | 0 mm | - | - | - |
| 1777582911 | 28.89° C | 44% | 0 hPa | 0 mm | - | - | - |
| 1777582311 | 27.78° C | 46% | 0 hPa | 0 mm | - | - | - |
* Rain latest hour (hover to see other rain measurements)
** Current wind speed in m/s (hover to see current wind gust speed)